User: anonymous   Login
Location: Unspecified
(40.9833°N, 0.0000°E)
Time: 21:55:26
(UTC+00:00)
Language:

KAITUO 1B - Orbit

View from above orbital plane
View from above orbital plane
View from above satellite
View from above satellite

Ground track
Ground track

The orbit data is extracted from the following two-line orbital elements,

1 40912U 15049P   19196.51588508  .00000917  00000-0  46129-4 0  9994
2 40912  97.4492 203.5203 0016611  79.7822  71.4712 15.19634932211388
Epoch (UTC): 15 July 2019 12:22:52
Eccentricity: 0.0016611
inclination: 97.4492°
perigee height: 495 km
apogee height: 518 km
right ascension of ascending node: 203.5203°
argument of perigee: 79.7822°
revolutions per day: 15.19634932
mean anomaly at epoch: 71.4712°
orbit number at epoch: 21138

The dashed part of the orbit path shows where the satellite is in the earth's shadow,  

DLR